Location: Big Meadows
(38.5260°N, 78.4400°W)
Time: 04:42:22
(UTC-04:00)

H-2A R/B - Visible Passes

Search period start: 28 July 2015 00:00
Search period end: 07 August 2015 00:00
Orbit: 734 x 838 km, 98.5° (Epoch: 27 July)

Date Brightness Start Highest point End Pass type
(mag) Time Alt. Az. Time Alt. Az. Time Alt. Az.
28 Jul 4.1 00:47:41 18° W 00:47:41 18° W 00:50:48 10° NW visible
28 Jul 3.2 22:36:07 27° E 22:37:04 29° ENE 22:41:37 10° N visible
29 Jul 3.3 00:16:45 34° W 00:16:45 34° W 00:21:13 10° NNW visible
29 Jul 3.9 22:05:12 14° E 22:06:42 16° ENE 22:09:53 10° NNE visible
29 Jul 2.3 23:45:50 67° W 23:45:50 67° W 23:50:59 10° NNW visible
30 Jul 2.1 23:14:55 63° E 23:15:04 64° ENE 23:20:20 10° N visible
31 Jul 4.4 00:55:34 15° W 00:55:34 15° W 00:57:50 10° WNW visible
31 Jul 3.0 22:44:01 32° E 22:44:35 33° ENE 22:49:19 10° N visible
01 Aug 3.6 00:24:39 28° W 00:24:39 28° W 00:28:34 10° NW visible
01 Aug 3.8 22:13:06 17° E 22:14:12 18° ENE 22:17:47 10° NNE visible
01 Aug 2.6 23:53:44 55° WNW 23:53:44 55° WNW 23:58:27 10° NNW visible
02 Aug 2.1 23:22:50 74° NE 23:22:50 74° NE 23:27:54 10° N visible
03 Aug 4.6 01:03:29 12° W 01:03:29 12° W 01:04:38 10° WNW visible
03 Aug 2.8 22:51:55 39° ENE 22:52:06 39° ENE 22:56:59 10° N visible
04 Aug 3.9 00:32:34 23° WNW 00:32:34 23° WNW 00:35:52 10° NW visible
04 Aug 3.6 22:21:00 20° ENE 22:21:41 21° ENE 22:25:36 10° NNE visible
05 Aug 2.9 00:01:39 44° WNW 00:01:39 44° WNW 00:05:54 10° NNW visible
05 Aug 4.2 21:50:14 10° ENE 21:51:23 11° ENE 21:52:51 10° NE visible
05 Aug 2.2 23:30:45 72° N 23:30:45 72° N 23:35:26 10° NNW visible
06 Aug 2.6 22:59:50 45° ENE 22:59:50 45° ENE 23:04:36 10° N visible
